Regional Weather Roundup
Issued by NWS Sioux Falls, SD

Home | Current Version | Previous Version | Text Only | Print | Product List | Glossary On
Versions: 1 2 3 4 5 6 7 8 9 10 11 12 13 14 15 16 17 18 19 20 21 22 23 24 25 26 27 28 29 30 31 32 33 34 35 36 37 38 39 40 41 42 43 44 45 46 47 48 49 50
000
ASUS43 KFSD 222310
RWRFSD

WEATHER ROUNDUP FOR SE SOUTH DAKOTA/SW MINNESOTA/NW IOWA
NATIONAL WEATHER SERVICE SIOUX FALLS SD
600 PM CDT FRI AUG 22 2014

NOTE: "FAIR" INDICATES FEW OR NO CLOUDS BELOW 12,000 FEET WITH NO
SIGNIFICANT WEATHER AND OR OBSTRUCTIONS TO VISIBILITY.


SDZ038>040-050-052>070-230000-
SOUTHEAST SOUTH DAKOTA

CITY           SKY/WX    TMP DP  RH WIND       PRES   REMARKS
CHAMBERLAIN    CLOUDY    81  67  62 E7        29.97F
HURON          CLOUDY    77  69  76 N14       29.96S
MADISON        FAIR      81  72  74 SE6       30.00S
MITCHELL       CLOUDY    83  73  72 E5        29.96S
SIOUX FALLS    PTSUNNY   84  68  58 E7        29.97F
WINNER         CLOUDY    82  68  62 SE12      29.98S
YANKTON        PTSUNNY   84  72  65 NE8       29.92F
$$

MNZ071-072-080-081-089-090-097-098-230000-
SOUTHWEST MINNESOTA

CITY           SKY/WX    TMP DP  RH WIND       PRES   REMARKS
FAIRMONT       SUNNY     73  64  73 N7        29.96F
JACKSON        MOSUNNY   82  68  61 NE6       29.98F
LUVERNE        PTSUNNY   82  68  61 NE5       29.98F
MARSHALL       MOSUNNY   82  68  61 E7        29.98S
MONTEVIDEO     SUNNY     90  70  51 E3        29.98S HX  95
PIPESTONE      CLOUDY    81  66  61 E3        30.01S
REDWOOD FALLS  MOSUNNY   83  69  62 N5        29.97R
TRACY          MOSUNNY   82  71  68 NE3       29.99S
WINDOM         SUNNY     81  70  69 N5        29.98F
WORTHINGTON      N/A     82  70  65 NE7       30.00S
$$

IAZ001>003-012>014-020>022-031-032-NEZ013-014-SDZ071-230000-
NORTHWEST IOWA

CITY           SKY/WX    TMP DP  RH WIND       PRES   REMARKS
CHEROKEE       MOSUNNY   82  76  80 NE8       29.94S
DENISON        CLOUDY    72  70  94 E7G23     29.91S FOG
ESTHERVILLE    MOSUNNY   83  71  67 N7        29.96S
LE MARS        PTSUNNY   84  73  70 NE10      29.95S
ORANGE CITY    MOSUNNY   82  70  65 E6        29.97S
SHELDON        MOSUNNY   81  73  78 NE7       29.96S
SIOUX CITY     MOSUNNY   88  75  65 E8        29.92S HX  97
SPENCER        MOSUNNY   84  72  67 NE5       29.96F
STORM LAKE     PTSUNNY   82  79  89 NE10      29.95S
$$

ABBREVIATIONS USED IN REMARKS
   TC - TEMPERATURE IN CELSIUS
  WCI - WIND CHILL INDEX
   HX - HEAT INDEX
  VSB - VISIBILITY




USA.gov is the U.S. government's official web portal to all federal, state and local government web resources and services.